When you browse on this site, cookies collect data to enhance your experience and personalize the content and advertising you see.
Visit our Privacy Policy to learn more. By continuing to use the site, you agree to this use of cookies and data.
  • In Germany
  • List of Countries
  • For 7 days
  • Water Temperature
  • Satellite Maps
  • Weather Map
  • Weather Widgets
  • user-avatar
    Login

    Hourly Weather Mykhal'cha

    Today, 21 November, Wednesday

    Time Temperature Precipitation Wind Pressure Humidity
    00:00 -6°C° 0 mm 3 mps 741 mmHg 100%
    01:00 -7°C° 0 mm 4 mps 741 mmHg 100%
    02:00 -7°C° 0 mm 4 mps 741 mmHg 100%
    03:00 -7°C° 0 mm 4 mps 741 mmHg 100%
    04:00 -7°C° 0 mm 3 mps 740 mmHg 100%
    05:00 -8°C° 0.3 mm 4 mps 740 mmHg 100%
    06:00 -8°C° 0.3 mm 4 mps 740 mmHg 100%
    07:00 -7°C° 0 mm 3 mps 740 mmHg 100%
    08:00 -8°C° 0.1 mm 3 mps 740 mmHg 100%
    09:00 -8°C° 0.3 mm 3 mps 740 mmHg 100%
    10:00 -7°C° 0.3 mm 3 mps 741 mmHg 100%
    11:00 -7°C° 0.3 mm 3 mps 741 mmHg 100%
    12:00 -7°C° 0.2 mm 3 mps 741 mmHg 100%
    13:00 -6°C° 0.3 mm 3 mps 741 mmHg 100%
    14:00 -5°C° 0.6 mm 2 mps 741 mmHg 100%
    15:00 -5°C° 1.1 mm 2 mps 741 mmHg 100%
    16:00 -5°C° 0.8 mm 2 mps 741 mmHg 100%
    17:00 -3°C° 0.5 mm 1 mps 741 mmHg 100%
    18:00 -3°C° 0.3 mm 1 mps 742 mmHg 100%
    19:00 -3°C° 0.1 mm 1 mps 742 mmHg 100%
    20:00 -3°C° 0.1 mm 1 mps 742 mmHg 100%
    21:00 -3°C° 0 mm 1 mps 742 mmHg 100%
    22:00 -5°C° 0.1 mm 2 mps 742 mmHg 100%
    23:00 -5°C° 0 mm 2 mps 742 mmHg 100%

    Tomorrow, 22 November, Thursday

    Time Temperature Precipitation Wind Pressure Humidity
    00:00 -4°C° 0 mm 1 mps 743 mmHg 100%
    01:00 -6°C° 0 mm 1 mps 743 mmHg 100%
    02:00 -7°C° 0 mm 1 mps 743 mmHg 100%
    03:00 -7°C° 0 mm 1 mps 743 mmHg 100%
    04:00 -8°C° 0 mm 0 mps 743 mmHg 100%
    05:00 -8°C° 0 mm 0 mps 743 mmHg 100%
    06:00 -9°C° 0 mm 1 mps 743 mmHg 100%
    07:00 -10°C° 0 mm 0 mps 743 mmHg 100%
    08:00 -10°C° 0 mm 0 mps 743 mmHg 100%
    09:00 -10°C° 0 mm 0 mps 743 mmHg 100%
    10:00 -10°C° 0 mm 0 mps 743 mmHg 100%
    11:00 -9°C° 0 mm 0 mps 743 mmHg 98%
    12:00 -7°C° 0 mm 0 mps 743 mmHg 99%
    13:00 -6°C° 0 mm 0 mps 743 mmHg 99%
    14:00 -6°C° 0 mm 1 mps 743 mmHg 99%
    15:00 -6°C° 0 mm 0 mps 743 mmHg 99%
    16:00 -6°C° 0 mm 0 mps 743 mmHg 98%
    17:00 -7°C° 0 mm 0 mps 743 mmHg 94%
    18:00 -7°C° 0 mm 1 mps 744 mmHg 92%
    19:00 -7°C° 0 mm 1 mps 744 mmHg 89%
    20:00 -7°C° 0 mm 1 mps 744 mmHg 88%
    21:00 -7°C° 0 mm 1 mps 744 mmHg 89%
    22:00 -8°C° 0 mm 1 mps 744 mmHg 88%
    23:00 -7°C° 0 mm 1 mps 744 mmHg 86%

    Day after tomorrow, 23 November, Friday

    Time Temperature Precipitation Wind Pressure Humidity
    00:00 -7°C° 0 mm 1 mps 744 mmHg 85%
    01:00 -7°C° 0 mm 1 mps 744 mmHg 85%
    02:00 -7°C° 0 mm 1 mps 744 mmHg 85%
    03:00 -8°C° 0 mm 1 mps 744 mmHg 86%
    04:00 -8°C° 0 mm 1 mps 744 mmHg 86%
    05:00 -8°C° 0 mm 1 mps 744 mmHg 86%
    06:00 -8°C° 0 mm 1 mps 744 mmHg 86%
    07:00 -9°C° 0 mm 2 mps 745 mmHg 87%
    08:00 -9°C° 0 mm 2 mps 745 mmHg 86%
    09:00 -8°C° 0 mm 1 mps 745 mmHg 85%
    10:00 -7°C° 0 mm 1 mps 746 mmHg 83%
    11:00 -6°C° 0 mm 1 mps 746 mmHg 82%
    12:00 -5°C° 0 mm 0 mps 746 mmHg 87%
    13:00 -4°C° 0 mm 0 mps 746 mmHg 95%
    14:00 -4°C° 0 mm 0 mps 746 mmHg 98%
    15:00 -3°C° 0 mm 1 mps 746 mmHg 98%
    16:00 -4°C° 0 mm 1 mps 746 mmHg 96%
    17:00 -6°C° 0 mm 1 mps 746 mmHg 92%
    18:00 -6°C° 0 mm 1 mps 746 mmHg 94%
    19:00 -7°C° 0 mm 1 mps 745 mmHg 96%
    20:00 -8°C° 0 mm 1 mps 745 mmHg 98%
    21:00 -8°C° 0 mm 1 mps 745 mmHg 97%
    22:00 -10°C° 0 mm 2 mps 745 mmHg 97%
    23:00 -12°C° 0 mm 2 mps 745 mmHg 98%

    24 November, Saturday

    Time Temperature Precipitation Wind Pressure Humidity
    00:00 -13°C° 0 mm 2 mps 745 mmHg 100%
    01:00 -14°C° 0 mm 2 mps 744 mmHg 100%
    02:00 -14°C° 0 mm 2 mps 744 mmHg 99%
    03:00 -15°C° 0 mm 2 mps 743 mmHg 98%
    04:00 -16°C° 0 mm 2 mps 743 mmHg 97%
    05:00 -16°C° 0 mm 2 mps 742 mmHg 96%
    06:00 -14°C° 0 mm 1 mps 742 mmHg 94%
    07:00 -14°C° 0 mm 1 mps 742 mmHg 93%
    08:00 -14°C° 0 mm 1 mps 742 mmHg 94%
    09:00 -14°C° 0 mm 1 mps 741 mmHg 93%
    10:00 -12°C° 0 mm 1 mps 741 mmHg 91%
    11:00 -11°C° 0 mm 1 mps 741 mmHg 93%
    12:00 -9°C° 0 mm 1 mps 741 mmHg 98%
    13:00 -9°C° 0 mm 1 mps 740 mmHg 99%
    14:00 -8°C° 0 mm 1 mps 740 mmHg 99%

    25 November, Sunday

    Time Temperature Precipitation Wind Pressure Humidity

    26 November, Monday

    Time Temperature Precipitation Wind Pressure Humidity
    Show more